Regional Weather Roundup
Issued by NWS Wakefield, VA

Home | Current Version | Previous Version | Graphics & Text | Print | Product List | Glossary On
Versions: 1 2 3 4 5 6 7 8 9 10 11 12 13 14 15 16 17 18 19 20 21 22 23 24 25 26 27 28 29 30 31 32 33 34 35 36 37 38 39 40 41 42 43 44 45 46 47 48 49 50
000
ASUS41 KAKQ 240810
RWRAKQ

REGIONAL WEATHER ROUNDUP
NATIONAL WEATHER SERVICE WAKEFIELD VA
400 AM EDT THU JUL 24 2014

Note: "fair" indicates few or no clouds below 12,000 feet with no
significant weather and/or obstructions to visibility. * = Denotes
station may not report precipitation (e.g., rain,snow,etc.),
thunder or fog.

VAZ042-051-052>054-056-240900-
NORTHERN VIRGINIA

CITY           SKY/WX    TMP DP  RH WIND       PRES   REMARKS
WASH NATIONAL  CLOUDY    78  68  71 N9        29.86S
DULLES         RAIN      72  69  90 NW12      29.88R FOG
FORT BELVOIR   LGT RAIN  75  70  83 VRB5      29.87R
QUANTICO       LGT RAIN  77  69  76 N10       29.87R
FREDERICKSBRG* LGT RAIN  77  70  79 NW5       29.85S
STAFFORD*      LGT RAIN  74  74 100 NW9       29.90S
WARRENTON      DRIZZLE   76  73  91 N6        29.87S
CULPEPER*      CLOUDY   N/A N/A N/A N5        29.87F
MANASSAS*      CLOUDY    75  72  88 N9        29.87S
LEESBURG*      LGT RAIN  72  72 100 CALM      29.90S
WINCHESTER     LGT RAIN  72  68  88 CALM      29.92S
$$

VAZ048-049-060>072-079>083-240900-
CENTRAL AND SOUTH CENTRAL VIRGINIA...AND NORTH CENTRAL NORTH CAROLINA

CITY           SKY/WX    TMP DP  RH WIND       PRES   REMARKS
RICHMOND       CLOUDY    78  71  79 CALM      29.85S
CHESTERFIELD*  CLOUDY    77  64  65 NW5       29.86F
HANOVER        LGT RAIN  76  70  82 W6        29.88R
TAPPAHANNOCK*  CLOUDY    74  70  87 CALM      29.85S
CHARLOTTSVILLE CLOUDY    72  69  90 NW3       29.88F
ORANGE*        LGT RAIN  72  68  88 CALM      29.89F
LOUISA*        RAIN      73  70  88 NW5       29.87R
FARMVILLE*     CLOUDY    75  73  94 NW3       29.87R
SOUTH HILL*    CLOUDY    79  75  89 SW6       29.91F
ROANOKE RAPIDS CLOUDY    73  72  94 SW6       29.87F
RALEIGH        MOCLDY    76  72  87 SW10      29.90F
$$

VAZ088>098-240900-
SOUTHEAST VIRGINIA

CITY           SKY/WX    TMP DP  RH WIND       PRES   REMARKS
NORFOLK        PTCLDY    79  72  79 SW12      29.84F
VIRGINIA BEACH PTCLDY    78  74  87 SW9       29.84S
NORFOLK NAVAL  RAIN      79  74  84 VRB6      29.85F
WEST POINT*    CLOUDY    80  73  81 CALM      29.84F
NEWPORT NEWS   PTCLDY    81  74  79 SW8       29.84F
LANGLEY AFB    CLOUDY    79  76  90 SW12      29.83F
FORT EUSTIS    MOCLDY    78  78 100 SW6       29.82F
WILLIAMSBURG*  MOCLDY    81  75  83 SW5       29.85S
FRANKLIN*      MOCLDY    77  73  88 W6        29.85S
WAKEFIELD      MOCLDY    77  72  84 SW5       29.85F
$$

VAZ020-022-025-037-045-240900-
WESTERN AND SOUTHWEST VIRGINIA

CITY           SKY/WX    TMP DP  RH WIND       PRES   REMARKS
STAUNTON*      LGT RAIN  70  68  94 CALM      29.94F
HOT SPRINGS VA CLOUDY    62  58  86 N5        30.05F
LYNCHBURG      CLOUDY    74  65  73 N5        29.91F
DANVILLE       CLOUDY    74  71  91 SW3       29.89F
MARTINSVILLE   CLOUDY    71  69  95 CALM      29.93F
ROANOKE        LGT RAIN  72  63  73 NE7       29.95F
BLACKSBURG     CLOUDY    70  68  94 CALM      30.00F
DUBLIN*        CLOUDY    72  66  83 CALM      29.99F
MARION*        CLOUDY    69  69  99 SW3       30.03F
HILLSVILLE*    CLOUDY    68  65  90 W5        30.01F
RICHLANDS*     CLOUDY    70  68  94 S3        30.01F FOG
WISE*          MOCLDY    64  64 100 CALM      30.03S FOG
ABINGDON*      MOCLDY    70  69  99 CALM      30.00F FOG
$$

MDZ021>025-VAZ099-100-240900-
SOUTHERN MARYLAND AND THE DELMARVA PENINSULA

CITY           SKY/WX    TMP DP  RH WIND       PRES   REMARKS
PATUXENT RIVER CLOUDY    75  71  87 NW8       29.83S
BAY BRIDGE APT   N/A     77  70  78 N7        29.84S
LEONARDTOWN    CLOUDY    72  70  94 W5        29.86S
DOVER          MOCLDY    72  72 100 NW5       29.82R
GEORGETOWN     MOCLDY    73  71  93 E7        29.84R
EASTON         MOCLDY    74  74 100 CALM      29.87S
CAMBRIDGE      MOCLDY    73  72  94 CALM      29.83R
SALISBURY      NOT AVBL
OCEAN CITY     MOCLDY    72  70  93 CALM      29.83R
WALLOPS ISLAND MOCLDY    78  72  81 N5        29.83R
ACCOMACK*        N/A     73  72  94 CALM      29.83S FOG
$$

NCZ012>017-030>032-240900-
EASTERN NORTH CAROLINA

CITY           SKY/WX    TMP DP  RH WIND       PRES   REMARKS
ELIZABETH CITY CLEAR     76  74  93 SW10      29.86F
AHOSKIE*       MOCLDY    75  72  92 CALM      29.87S
EDENTON*       MOCLDY    78  74  89 SW8       29.87F
CURRITUCK*     CLEAR     78  74  87 SW8       29.87S
KILL DEVIL HLS CLEAR     78  75  90 SW8       29.86F
MANTEO         NOT AVBL
CAPE HATTERAS  MOCLDY    79  77  94 W9        29.90F
GOLDSBORO      CLEAR     77  76  98 SW8       29.89F
WASHINGTON     PTCLDY    75  73  94 SW6       29.90S
GREENVILLE     MOCLDY    77  73  88 SW8       29.91F
NEW BERN       PTCLDY    78  73  84 SW6       29.92F
WILMINGTON     CLEAR     78  75  90 SW6       29.93F
$$

VAZ048-240900-
ELSEWHERE

CITY           SKY/WX    TMP DP  RH WIND       PRES   REMARKS
HARRISBURG PA  CLOUDY    73  59  61 NW8       29.87S
BALTIMORE      CLOUDY    73  70  90 CALM      29.85R
ANNAPOLIS      CLOUDY    77  71  82 N6        29.84R
ANDREWS AFB    DRIZZLE   77  70  78 N7        29.86S
WILMINGTON DE  CLOUDY    73  68  84 N10       29.85S
PHILADELPHIA   CLOUDY    74  65  73 NW13      29.84R
WILDWOOD NJ*   CLOUDY    73  70  88 SW3       29.84S
ATLANTIC CITY  PTCLDY    71  68  90 W5        29.81S
HENDERSON NC   CLOUDY    75  71  86 SW7       29.89F
GREENSBORO     MOCLDY    73  70  90 SW6       29.91F
ROCKY MOUNT    CLOUDY    77  74  90 SW7       29.88F
FAYETTEVILLE   PTCLDY    76  74  93 SW8       29.91F
CHARLOTTE      CLOUDY    72  69  90 CALM      29.93F
$$

VAZ100-240900-
MARINE

STATION/POSITION TIME  TEMP    WIND        PRES    WAVE   SWELL
                       AIR SEA DIR/SP/G            HT/PER HT/PER
                 (UTC) (F)     (DEG/KT/KT) (MB)    (FT/S) (FT/S)
44066 TX TWR #4  0800   74 74  270/ 14/ 16 1008.2F   3/ 4   2/10
CAPE MAY NJ      0700   74 77  270/  3/  5 1009.6R
LEWES DE         0700   73 70   CALM  /  1 1010.0R
15NM E FENWICK I 0800   75 75              1009.6F   3/ 5
OCEAN-CITY-INLET 0700   74 74   CALM  /  1 1009.7R
WACHAPREAGUE VA  0700   76 84  260/  2/  3 1009.8F
THOMAS POINT MD  0700   78 80  320/  7/  8 1010.9F
GOOSES REEF MD   0800   78     320/ 10/ 10 1010.7S
COVE POINT MD    0700   76     310/  6/  7 1010.1F
SOLOMONS ISLAND  0700      82                N/A
BISHOPS HEAD MD  0700   79 81  290/ 12/ 13 1009.7F
PINEY POINT MD   0700          320/  8/  9   N/A
POTOMAC MD       0800   80     310/ 12/ 14 1009.3R
CAMBRIDGE MD     0700   76 80  260/  3/  5 1009.8F
LEWISETTA VA     0700   76 81  310/  5/  6 1009.9F
RAPPAHANNOCK LGT 0700          250/  5/  5 1010.5F
STINGRAY PT      0800   80     280/  8/  8 1010.7R
YORK RVR RNG VA  0700   81     270/ 11/ 13 1009.5F
YORKTOWN VA      0700   79 81  240/  9/ 11 1009.8F
JAMESTOWN VA     0800   77     280/  6/  8   N/A
DOMINION TERM VA 0700   79     250/ 10/ 13 1010.6S
KIPTOPEKE VA     0700      82  240/ 12/ 15   N/A
CHES BAY BRIDGE  0700   80 79  230/ 13/ 15 1009.8F
CAPE HENRY VA    0700   79     240/ 10/ 17 1009.3F
WILLOUBY STN VA  0700          290/  8/ 10 1009.6F
S CRANEY ISL VA  0700          240/  7/ 10 1010.7S
CAPE HENRY BUOY  0700      78                N/A     3/ 4
1ST LANDING BUOY 0800   80     240/ 14/ 17 1010.1F
CAPE CHARLES BUO 0800      75                N/A     2/11
OFFSHORE WE BUOY 0700      78                N/A     3/ 9
64NM E OF VA BCH 0800   79 78  230/ 14/ 16 1010.3F   4/ 7   2/ 7
DUCK PIER NC     0700   78 73  230/ 13/ 19 1010.7F
44056 DUCK FRF   0700                        N/A     2/ 6
OREGON INLET NC  0700   79 84  230/ 16/ 19 1011.6F
HATTERAS NC      0700   79 82  230/  8/ 12 1013.0F
DIAMOND SHLS NC  0800          VRB 17/ 21  1012.1F   4/ 7   2/ 7
CAPE LOOKOUT NC  0700   80     230/ 11/ 15 1013.3F
$$



USA.gov is the U.S. government's official web portal to all federal, state and local government web resources and services.